#timestamp,LO_Frequency,Hit,StdDev 
1540404015.8,286046995.3,Y
1540404035.6,286046999.3,P
1540404055.5,286047000.9,N
1540404075.3,286046999.9,N
1540404095.1,286047002.1,N
1540404115.9,286047002.8,N
1540404135.7,286047000.2,N
1540404155.5,286047000.9,N
1540404175.4,286047000.8,N
1540404195.2,286046999.6,N
1540404215.1,286046998.4,N
1540404216.0,286046998.4,N
1540404235.8,286046998.6,N
1540404255.6,286046999.1,N
1540404275.5,286046998.7,N
1540404295.3,286046999.1,N
1540404315.1,286046996.9,N
1540404335.9,286046999.2,N
1540404355.7,286046996.8,N
1540404375.6,286046997.3,N
1540404395.4,286046996.9,N
1540404415.2,286046999.0,N
1540404435.1,286046996.9,N
1540404436.0,286046996.9,N
1540404455.8,286046999.6,N
1540404475.6,286046996.8,N
1540404495.5,286046997.4,N
1540404515.3,286046995.4,N
1540404535.2,286046995.9,N
1540404555.9,286046993.9,Y
1540404575.7,286046999.3,P
1540404595.6,286046998.3,P
1540404615.4,286046999.2,N
1540404635.2,286046998.4,Y
1540404655.1,286047000.7,P
1540404656.0,286047000.7,N
1540404675.8,286046998.3,N
1540404695.7,286047001.1,N
1540404715.5,286047001.0,N
1540404735.3,286047001.1,N
1540404755.2,286047000.0,N
1540404775.0,286047001.0,N
1540404775.9,286047001.0,N
1540404795.8,286046998.3,N
1540404815.6,286046996.8,N
1540404835.4,286046996.6,N
1540404855.3,286046999.3,N
1540404875.1,286046999.6,N
1540404895.8,286047000.4,N
1540404915.7,286047000.6,N
1540404935.5,286047002.6,N
1540404955.3,286046999.8,N
1540404975.2,286047004.0,N
1540404995.0,286047001.3,N
1540404995.9,286047001.3,N
1540405015.8,286047001.5,N
1540405035.6,286047001.5,N
1540405055.4,286047003.3,N
1540405075.3,286047003.4,N
1540405095.1,286047005.7,Y
1540405115.9,286047005.8,P
1540405135.7,286047005.8,N
1540405155.5,286047005.1,N
1540405175.4,286047003.5,N
1540405195.2,286047004.1,N
1540405215.0,286047003.6,N
1540405215.9,286047003.6,N
1540405235.8,286047004.9,Y
1540405255.6,286047004.3,P
1540405275.5,286047003.4,P
1540405295.3,286046999.8,N
1540405315.1,286047000.0,N
1540405335.9,286046999.9,N
1540405355.7,286047000.9,N
1540405375.5,286047000.1,N
1540405395.4,286047001.4,N
1540405415.2,286047001.3,N
1540405435.1,286047001.3,N
1540405436.0,286047001.3,N
1540405455.8,286047004.3,N
1540405475.6,286047003.9,N
1540405495.5,286047001.8,N
1540405515.3,286047004.1,N
1540405535.1,286047004.2,N
1540405555.9,286047001.6,N
1540405575.7,286047001.3,N
1540405595.6,286047001.7,N
1540405615.4,286047004.4,N
1540405635.2,286047003.3,N
1540405655.1,286047007.4,Y
1540405656.0,286047007.4,P
1540405675.8,286047003.5,N
1540405695.6,286047001.8,N
1540405715.5,286046999.7,N
1540405735.3,286046999.7,N
1540405755.2,286047002.8,N
1540405775.9,286047001.1,N
1540405795.7,286047001.5,N
1540405815.6,286047002.8,N
1540405835.4,286047001.6,N
1540405855.2,286047002.2,N
1540405905.1,286047001.9,E
1540405915.0,286047000.5,N
1540405915.9,286047000.5,P
1540405935.8,286046999.9,P
1540405955.6,286046998.1,Y
1540405975.4,286047000.8,P
1540405995.3,286046998.1,P
1540406015.1,286046999.1,N
1540406035.8,286046998.2,N
1540406055.7,286046999.1,N
1540406075.5,286046997.2,N
1540406095.4,286046996.6,N
1540406115.2,286046998.3,N
1540406135.0,286047002.1,N
1540406135.9,286047002.1,N
1540406155.8,286047001.2,N
1540406175.6,286046998.6,N
1540406195.4,286047000.3,N
1540406215.3,286046998.5,N
1540406235.1,286046999.9,N
1540406255.9,286047000.5,N
1540406275.7,286047002.4,N
1540406295.5,286047001.8,N
1540406315.4,286047004.3,N
1540406335.2,286047001.7,N
1540406355.0,286047001.6,N
1540406355.9,286047001.6,N
1540406375.8,286047001.5,N
1540406395.6,286047002.5,N
1540406415.4,286047000.0,N
1540406435.3,286046998.4,N
1540406455.1,286047001.0,N
1540406475.9,286047000.4,N
1540406495.7,286046998.8,N
1540406515.5,286047001.0,N
1540406535.4,286047000.8,N
1540406555.2,286047000.5,N
1540406575.0,286046999.9,N
1540406575.9,286046999.9,N
1540406595.8,286047000.2,N
1540406615.6,286047000.4,N
1540406635.5,286046998.2,N
1540406655.3,286047000.3,N
1540406675.1,286047000.4,N
1540406695.9,286047000.5,N
1540406715.7,286047000.1,N
1540406735.5,286046999.8,N
1540406755.4,286047001.7,N
1540406775.2,286047001.8,N
1540406795.1,286047002.6,N
1540406796.0,286047002.6,N
1540406815.8,286047002.5,N
1540406835.6,286047003.8,N
1540406855.5,286046999.8,N
1540406875.3,286047001.9,N
1540406895.1,286047002.2,N
1540406915.9,286047004.4,Y
1540406935.7,286047002.6,P
1540406955.6,286047002.5,N
1540406975.4,286047001.9,N
1540406995.2,286047002.1,N
1540407015.1,286047000.7,N
1540407016.0,286047000.7,N
1540407035.8,286046999.3,N
1540407055.7,286046998.3,N
1540407075.5,286046998.3,N
1540407095.3,286047000.7,N
1540407115.2,286047002.7,N
1540407135.0,286047000.3,N
1540407135.9,286047000.3,N
1540407155.7,286047000.6,N
1540407175.6,286047001.1,N
1540407195.4,286047000.9,N
1540407215.3,286047000.6,N
1540407235.1,286046999.3,N
1540407255.8,286046998.4,N
1540407275.7,286046999.7,N
1540407295.5,286047002.4,N
1540407315.4,286047002.5,N
1540407335.2,286047003.6,N
1540407355.0,286047002.6,N
1540407355.9,286047002.6,N
1540407375.8,286047000.9,N
1540407395.6,286046998.8,N
1540407415.4,286046997.0,N
1540407435.3,286046997.1,N
1540407455.1,286046997.2,N
1540407475.9,286046997.2,N
1540407495.7,286046996.7,N
1540407515.5,286046999.4,N
1540407535.4,286046996.6,N
1540407555.2,286046997.3,N
1540407575.0,286046995.2,N
1540407575.9,286046995.2,N
1540407595.8,286046995.2,N
